| time (UTC) | temp F | wind direction | speed knots | gust knots | rain 1hr in | rain 24hr in | rain mn in | humidity % | barometer mb |
| 20260906140004 | 68 | 135 | 1.7 | 3.5 | 0.00 | 0.00 | 0.00 | 88 | 1021.6 |
| 20260906135502 | 68 | 69 | 0.9 | 2.6 | 0.00 | 0.00 | 0.00 | 89 | 1021.7 |
| 20260906135002 | 68 | 50 | 0.9 | 3.5 | 0.00 | 0.00 | 0.00 | 90 | 1021.6 |
| 20260906134502 | 67 | 50 | 1.7 | 3.5 | 0.00 | 0.00 | 0.00 | 91 | 1021.6 |
| 20260906134002 | 67 | 107 | 1.7 | 3.5 | 0.00 | 0.00 | 0.00 | 92 | 1021.6 |
| 20260906133002 | 66 | 89 | 0.9 | 1.7 | 0.00 | 0.00 | 0.00 | 96 | 1021.6 |
| 20260906132506 | 66 | 138 | 0.9 | 2.6 | 0.00 | 0.00 | 0.00 | 98 | 1021.6 |
| 20260906132002 | 65 | 138 | 0.9 | 2.6 | 0.00 | 0.00 | 0.00 | 98 | 1021.5 |
| 20260906131502 | 65 | 331 | 0.0 | 1.7 | 0.00 | 0.00 | 0.00 | 99 | 1021.4 |
| 20260906130502 | 65 | 331 | 0.0 | 0.9 | 0.00 | 0.00 | 0.00 | 100 | 1021.2 |
| 20260906130004 | 64 | 331 | 0.0 | 0.9 | 0.00 | 0.00 | 0.00 | 100 | 1021.3 |
| 20260906125505 | 64 | 331 | 0.0 | 0.9 | 0.00 | 0.00 | 0.00 | 100 | 1021.3 |
| 20260906125002 | 64 | 331 | 0.0 | 0.9 | 0.00 | 0.00 | 0.00 | 99 | 1021.1 |
| 20260906124502 | 63 | 331 | 0.0 | 0.9 | 0.00 | 0.00 | 0.00 | 100 | 1021.0 |
| 20260906124002 | 63 | 331 | 0.0 | 1.7 | 0.00 | 0.00 | 0.00 | 100 | 1020.9 |
| 20260906123503 | 63 | 331 | 0.0 | 1.7 | 0.00 | 0.00 | 0.00 | 99 | 1020.8 |
| 20260906123004 | 62 | 304 | 0.0 | 0.0 | 0.00 | 0.00 | 0.00 | 99 | 1020.8 |
| 20260906122502 | 62 | 304 | 0.0 | 0.0 | 0.00 | 0.00 | 0.00 | 99 | 1020.8 |
| 20260906122003 | 62 | 304 | 0.0 | 0.9 | 0.00 | 0.00 | 0.00 | 99 | 1020.8 |
| 20260906121505 | 62 | 304 | 0.0 | 0.9 | 0.00 | 0.00 | 0.00 | 99 | 1020.8 |
| 20260906121002 | 62 | 304 | 0.0 | 0.0 | 0.00 | 0.00 | 0.00 | 99 | 1020.9 |
| 20260906120502 | 62 | 304 | 0.0 | 0.0 | 0.00 | 0.00 | 0.00 | 99 | 1020.8 |
| 20260906120004 | 62 | 304 | 0.0 | 0.0 | 0.00 | 0.00 | 0.00 | 98 | 1020.7 |
| 20260906115502 | 62 | 304 | 0.0 | 0.9 | 0.00 | 0.00 | 0.00 | 99 | 1020.5 |
| 20260906114505 | 62 | 304 | 0.0 | 0.0 | 0.00 | 0.00 | 0.00 | 98 | 1020.5 |
| 20260906114002 | 62 | 304 | 0.0 | 0.0 | 0.00 | 0.00 | 0.00 | 99 | 1020.4 |
| 20260906113502 | 62 | 304 | 0.0 | 0.0 | 0.00 | 0.00 | 0.00 | 99 | 1020.3 |
| 20260906113002 | 62 | 304 | 0.0 | 0.0 | 0.00 | 0.00 | 0.00 | 99 | 1020.2 |
| 20260906112502 | 62 | 304 | 0.0 | 0.0 | 0.00 | 0.00 | 0.00 | 99 | 1020.2 |
| 20260906112003 | 62 | 304 | 0.0 | 0.0 | 0.00 | 0.00 | 0.00 | 98 | 1020.0 |
| 20260906111003 | 62 | 304 | 0.0 | 0.0 | 0.00 | 0.00 | 0.00 | 98 | 1019.9 |
| 20260906110503 | 62 | 304 | 0.0 | 0.9 | 0.00 | 0.00 | 0.00 | 98 | 1019.9 |
| 20260906110004 | 62 | 304 | 0.0 | 0.9 | 0.00 | 0.00 | 0.00 | 98 | 1020.0 |
| 20260906105502 | 62 | 304 | 0.0 | 0.9 | 0.00 | 0.00 | 0.00 | 98 | 1020.1 |
| 20260906104002 | 62 | 304 | 0.0 | 0.0 | 0.00 | 0.00 | 0.00 | 98 | 1020.1 |
| 20260906103502 | 62 | 304 | 0.0 | 0.0 | 0.00 | 0.00 | 0.00 | 98 | 1020.1 |
| 20260906103002 | 62 | 304 | 0.0 | 0.0 | 0.00 | 0.00 | 0.00 | 98 | 1020.0 |
| 20260906102501 | 62 | 304 | 0.0 | 0.0 | 0.00 | 0.00 | 0.00 | 98 | 1019.9 |
| 20260906102002 | 62 | 304 | 0.0 | 0.9 | 0.00 | 0.00 | 0.00 | 98 | 1020.0 |
| 20260906101503 | 62 | 304 | 0.0 | 0.9 | 0.00 | 0.00 | 0.00 | 98 | 1020.0 |
| 20260906101003 | 62 | 304 | 0.0 | 0.0 | 0.00 | 0.00 | 0.00 | 98 | 1020.0 |
| 20260906100502 | 62 | 304 | 0.0 | 0.0 | 0.00 | 0.00 | 0.00 | 98 | 1019.9 |
| 20260906100004 | 62 | 304 | 0.0 | 0.0 | 0.00 | 0.00 | 0.00 | 98 | 1019.8 |
| 20260906095503 | 62 | 304 | 0.0 | 0.9 | 0.00 | 0.00 | 0.00 | 98 | 1019.7 |
| 20260906095003 | 62 | 304 | 0.0 | 0.9 | 0.00 | 0.00 | 0.00 | 98 | 1019.8 |
| 20260906094503 | 62 | 304 | 0.0 | 0.0 | 0.00 | 0.00 | 0.00 | 98 | 1019.7 |
| 20260906094003 | 62 | 304 | 0.0 | 0.0 | 0.00 | 0.00 | 0.00 | 98 | 1019.7 |
| 20260906093503 | 62 | 304 | 0.0 | 0.0 | 0.00 | 0.00 | 0.00 | 98 | 1019.8 |
| 20260906093003 | 62 | 304 | 0.0 | 0.0 | 0.00 | 0.00 | 0.00 | 98 | 1019.7 |
| 20260906092503 | 62 | 304 | 0.0 | 0.0 | 0.00 | 0.00 | 0.00 | 98 | 1019.7 |
| 20260906092002 | 62 | 304 | 0.0 | 0.0 | 0.00 | 0.00 | 0.00 | 98 | 1019.7 |
| 20260906091503 | 62 | 304 | 0.0 | 0.0 | 0.00 | 0.00 | 0.00 | 98 | 1019.7 |
| 20260906091002 | 62 | 304 | 0.0 | 0.9 | 0.00 | 0.00 | 0.00 | 98 | 1019.6 |
| 20260906090503 | 62 | 304 | 0.0 | 0.9 | 0.00 | 0.00 | 0.00 | 98 | 1019.6 |
| 20260906090004 | 62 | 304 | 0.0 | 0.0 | 0.00 | 0.00 | 0.00 | 97 | 1019.6 |
| 20260906085502 | 62 | 304 | 0.0 | 0.0 | 0.00 | 0.00 | 0.00 | 97 | 1019.7 |
| 20260906085002 | 62 | 304 | 0.0 | 0.0 | 0.00 | 0.00 | 0.00 | 97 | 1019.7 |
| 20260906084505 | 63 | 304 | 0.0 | 0.9 | 0.00 | 0.00 | 0.00 | 97 | 1019.7 |
| 20260906084002 | 63 | 304 | 0.0 | 0.9 | 0.00 | 0.00 | 0.00 | 98 | 1019.7 |
| 20260906083503 | 63 | 304 | 0.0 | 0.9 | 0.00 | 0.00 | 0.00 | 97 | 1019.6 |
| 20260906083003 | 63 | 304 | 0.0 | 0.9 | 0.00 | 0.00 | 0.00 | 98 | 1019.6 |
| 20260906082502 | 63 | 304 | 0.0 | 0.0 | 0.00 | 0.00 | 0.00 | 97 | 1019.6 |
| 20260906082004 | 63 | 304 | 0.0 | 0.0 | 0.00 | 0.00 | 0.00 | 97 | 1019.5 |
| 20260906081003 | 63 | 304 | 0.0 | 0.9 | 0.00 | 0.00 | 0.00 | 98 | 1019.5 |
| 20260906080502 | 63 | 304 | 0.0 | 0.9 | 0.00 | 0.00 | 0.00 | 98 | 1019.5 |
| 20260906080003 | 63 | 304 | 0.0 | 0.0 | 0.00 | 0.00 | 0.00 | 98 | 1019.5 |
| 20260906075502 | 63 | 304 | 0.0 | 0.9 | 0.00 | 0.00 | 0.00 | 98 | 1019.5 |
| 20260906075002 | 63 | 304 | 0.0 | 0.9 | 0.00 | 0.00 | 0.00 | 98 | 1019.5 |
| 20260906074502 | 63 | 304 | 0.0 | 0.9 | 0.00 | 0.00 | 0.00 | 98 | 1019.6 |
| 20260906074002 | 63 | 304 | 0.0 | 1.7 | 0.00 | 0.00 | 0.00 | 98 | 1019.6 |
| 20260906073502 | 63 | 72 | 0.0 | 0.9 | 0.00 | 0.00 | 0.00 | 98 | 1019.6 |
| 20260906073002 | 63 | 72 | 0.0 | 0.9 | 0.00 | 0.00 | 0.00 | 98 | 1019.4 |
| 20260906072502 | 63 | 72 | 0.0 | 0.9 | 0.00 | 0.00 | 0.00 | 98 | 1019.3 |
| 20260906072002 | 63 | 72 | 0.0 | 0.9 | 0.00 | 0.00 | 0.00 | 98 | 1019.2 |
| 20260906071502 | 63 | 72 | 0.0 | 0.0 | 0.00 | 0.00 | 0.00 | 98 | 1019.2 |
| 20260906070502 | 62 | 72 | 0.0 | 0.0 | 0.00 | 0.00 | 0.00 | 98 | 1019.2 |
| 20260906065502 | 62 | 72 | 0.0 | 0.0 | 0.00 | 0.00 | 0.00 | 98 | 1019.3 |
| 20260906064502 | 62 | 72 | 0.0 | 0.9 | 0.00 | 0.00 | 0.00 | 98 | 1019.4 |
| 20260906064001 | 62 | 72 | 0.0 | 0.9 | 0.00 | 0.00 | 0.00 | 98 | 1019.4 |
| 20260906063002 | 62 | 72 | 0.0 | 0.0 | 0.00 | 0.00 | 0.00 | 98 | 1019.6 |
| 20260906062502 | 62 | 72 | 0.0 | 0.0 | 0.00 | 0.00 | 0.00 | 98 | 1019.5 |
| 20260906061503 | 62 | 72 | 0.0 | 1.7 | 0.00 | 0.00 | 0.00 | 98 | 1019.4 |
| 20260906061001 | 62 | 72 | 0.0 | 1.7 | 0.00 | 0.00 | 0.00 | 97 | 1019.4 |
| 20260906060502 | 62 | 72 | 0.0 | 0.9 | 0.00 | 0.00 | 0.00 | 97 | 1019.2 |
| 20260906055503 | 62 | 72 | 0.0 | 1.7 | 0.00 | 0.00 | 0.00 | 97 | 1019.1 |
| 20260906055004 | 62 | 72 | 0.0 | 0.0 | 0.00 | 0.00 | 0.00 | 97 | 1019.2 |
| 20260906054504 | 62 | 72 | 0.0 | 0.0 | 0.00 | 0.00 | 0.00 | 97 | 1019.2 |
| 20260906054003 | 62 | 72 | 0.0 | 1.7 | 0.00 | 0.00 | 0.00 | 97 | 1019.2 |
| 20260906052504 | 63 | 72 | 0.0 | 0.9 | 0.00 | 0.00 | 0.00 | 97 | 1019.3 |
| 20260906052004 | 63 | 72 | 0.0 | 0.9 | 0.00 | 0.00 | 0.00 | 97 | 1019.3 |
| 20260906051504 | 63 | 72 | 0.0 | 0.9 | 0.00 | 0.00 | 0.00 | 97 | 1019.3 |
| 20260906051003 | 63 | 72 | 0.0 | 0.9 | 0.00 | 0.00 | 0.00 | 97 | 1019.2 |
| 20260906050503 | 63 | 72 | 0.0 | 0.0 | 0.00 | 0.00 | 0.00 | 97 | 1019.1 |
| 20260906050008 | 63 | 72 | 0.0 | 0.0 | 0.00 | 0.00 | 0.00 | 97 | 1019.0 |
| 20260906045503 | 63 | 72 | 0.0 | 0.9 | 0.00 | 0.00 | 0.00 | 97 | 1019.0 |
| 20260906044504 | 63 | 72 | 0.0 | 0.9 | 0.00 | 0.00 | 0.00 | 97 | 1019.1 |
| 20260906044004 | 63 | 72 | 0.0 | 0.9 | 0.00 | 0.00 | 0.00 | 97 | 1019.0 |
| 20260906043504 | 63 | 72 | 0.0 | 0.0 | 0.00 | 0.00 | 0.00 | 97 | 1019.1 |
| 20260906043004 | 63 | 72 | 0.0 | 0.9 | 0.00 | 0.00 | 0.00 | 97 | 1019.1 |
| 20260906042504 | 63 | 72 | 0.0 | 0.9 | 0.00 | 0.00 | 0.00 | 97 | 1019.1 |
| 20260906042005 | 63 | 72 | 0.0 | 0.9 | 0.00 | 0.00 | 0.00 | 96 | 1018.8 |
| 20260906041504 | 63 | 72 | 0.0 | 0.9 | 0.00 | 0.00 | 0.00 | 97 | 1018.8 |
| 20260906041005 | 63 | 72 | 0.0 | 0.9 | 0.00 | 0.00 | 0.00 | 97 | 1018.8 |
| 20260906040503 | 63 | 72 | 0.0 | 0.0 | 0.00 | 0.00 | 0.00 | 97 | 1018.7 |
| 20260906040008 | 63 | 72 | 0.0 | 0.0 | 0.00 | 0.00 | 0.00 | 96 | 1018.6 |
| 20260906034504 | 63 | 72 | 0.0 | 0.0 | 0.00 | 0.00 | 0.00 | 96 | 1018.8 |
| 20260906034004 | 63 | 72 | 0.0 | 0.0 | 0.00 | 0.00 | 0.00 | 96 | 1018.8 |
| 20260906033504 | 64 | 72 | 0.0 | 0.0 | 0.00 | 0.00 | 0.00 | 96 | 1018.8 |
| 20260906033003 | 64 | 72 | 0.0 | 0.0 | 0.00 | 0.00 | 0.00 | 96 | 1018.6 |
| 20260906032504 | 64 | 72 | 0.0 | 0.0 | 0.00 | 0.00 | 0.00 | 96 | 1018.7 |
| 20260906031503 | 64 | 72 | 0.0 | 0.0 | 0.00 | 0.00 | 0.00 | 96 | 1018.8 |
| 20260906031005 | 64 | 72 | 0.0 | 0.0 | 0.00 | 0.00 | 0.00 | 96 | 1018.8 |
| 20260906030505 | 64 | 72 | 0.0 | 0.0 | 0.00 | 0.00 | 0.00 | 95 | 1018.8 |
| 20260906030005 | 64 | 72 | 0.0 | 0.0 | 0.00 | 0.00 | 0.00 | 95 | 1018.8 |
| 20260906025504 | 64 | 72 | 0.0 | 0.0 | 0.00 | 0.00 | 0.00 | 95 | 1018.8 |
| 20260906025005 | 64 | 72 | 0.0 | 0.0 | 0.00 | 0.00 | 0.00 | 95 | 1018.8 |
| 20260906024504 | 64 | 72 | 0.0 | 0.0 | 0.00 | 0.00 | 0.00 | 95 | 1018.8 |
| 20260906024003 | 65 | 72 | 0.0 | 0.0 | 0.00 | 0.00 | 0.00 | 95 | 1018.8 |
| 20260906023504 | 65 | 72 | 0.0 | 0.0 | 0.00 | 0.00 | 0.00 | 95 | 1018.9 |
| 20260906023005 | 65 | 72 | 0.0 | 0.0 | 0.00 | 0.00 | 0.00 | 94 | 1018.7 |
| 20260906021503 | 65 | 72 | 0.0 | 0.0 | 0.00 | 0.00 | 0.00 | 94 | 1018.6 |
| 20260906021004 | 65 | 72 | 0.0 | 0.0 | 0.00 | 0.00 | 0.00 | 94 | 1018.7 |
| 20260906020505 | 66 | 72 | 0.0 | 0.9 | 0.00 | 0.00 | 0.00 | 93 | 1018.5 |
| 20260906020007 | 66 | 72 | 0.0 | 0.9 | 0.00 | 0.00 | 0.00 | 93 | 1018.5 |
| 20260906015505 | 66 | 72 | 0.0 | 0.0 | 0.00 | 0.00 | 0.00 | 93 | 1018.4 |
| 20260906015004 | 66 | 72 | 0.0 | 0.0 | 0.00 | 0.00 | 0.00 | 93 | 1018.4 |
| 20260906014504 | 66 | 72 | 0.0 | 0.0 | 0.00 | 0.00 | 0.00 | 92 | 1018.4 |
| 20260906014005 | 67 | 72 | 0.0 | 0.9 | 0.00 | 0.00 | 0.00 | 92 | 1018.4 |
| 20260906013503 | 67 | 72 | 0.0 | 0.9 | 0.00 | 0.00 | 0.00 | 92 | 1018.4 |
| 20260906013003 | 67 | 72 | 0.0 | 0.9 | 0.00 | 0.00 | 0.00 | 91 | 1018.3 |
| 20260906012504 | 67 | 72 | 0.0 | 0.0 | 0.00 | 0.00 | 0.00 | 91 | 1018.4 |
| 20260906012004 | 68 | 72 | 0.0 | 0.0 | 0.00 | 0.00 | 0.00 | 90 | 1018.4 |
| 20260906011004 | 68 | 72 | 0.0 | 0.0 | 0.00 | 0.00 | 0.00 | 89 | 1018.5 |
| 20260906010503 | 69 | 72 | 0.0 | 0.9 | 0.00 | 0.00 | 0.00 | 89 | 1018.4 |
| 20260906005503 | 69 | 72 | 0.0 | 1.7 | 0.00 | 0.00 | 0.00 | 90 | 1018.4 |
| 20260906005003 | 69 | 72 | 0.0 | 1.7 | 0.00 | 0.00 | 0.00 | 90 | 1018.3 |
| 20260906004504 | 70 | 72 | 0.0 | 1.7 | 0.00 | 0.00 | 0.00 | 91 | 1018.4 |
| 20260906004003 | 70 | 72 | 0.0 | 0.9 | 0.00 | 0.00 | 0.00 | 91 | 1018.4 |
| 20260906003003 | 70 | 72 | 0.0 | 0.9 | 0.00 | 0.00 | 0.00 | 91 | 1018.2 |
| 20260906002003 | 70 | 72 | 0.0 | 0.9 | 0.00 | 0.00 | 0.00 | 91 | 1018.4 |
| 20260906001503 | 70 | 72 | 0.0 | 0.0 | 0.00 | 0.00 | 0.00 | 91 | 1018.4 |
| 20260906001004 | 70 | 72 | 0.0 | 0.0 | 0.00 | 0.00 | 0.00 | 91 | 1018.4 |
| 20260906000504 | 70 | 72 | 0.0 | 0.9 | 0.00 | 0.00 | 0.00 | 91 | 1018.4 |
| 20260906000006 | 71 | 72 | 0.0 | 0.9 | 0.00 | 0.00 | 0.00 | 91 | 1018.4 |
| 20260905235505 | 71 | 72 | 0.0 | 0.9 | 0.00 | 0.00 | 0.00 | 91 | 1018.3 |
| 20260905235003 | 71 | 72 | 0.0 | 0.9 | 0.00 | 0.00 | 0.00 | 91 | 1018.5 |
| 20260905234504 | 71 | 72 | 0.0 | 0.9 | 0.00 | 0.00 | 0.00 | 91 | 1018.5 |
| 20260905234004 | 71 | 72 | 0.0 | 1.7 | 0.00 | 0.00 | 0.00 | 91 | 1018.6 |
| 20260905233004 | 71 | 72 | 0.0 | 0.9 | 0.00 | 0.00 | 0.00 | 91 | 1018.4 |
| 20260905232504 | 71 | 72 | 0.0 | 0.9 | 0.00 | 0.00 | 0.00 | 91 | 1018.2 |
| 20260905232003 | 71 | 72 | 0.9 | 2.6 | 0.00 | 0.00 | 0.00 | 92 | 1018.2 |
| 20260905231504 | 71 | 72 | 1.7 | 3.5 | 0.00 | 0.00 | 0.00 | 91 | 1018.2 |
| 20260905231004 | 71 | 78 | 0.9 | 3.5 | 0.00 | 0.00 | 0.00 | 91 | 1018.3 |
| 20260905230504 | 71 | 69 | 0.9 | 2.6 | 0.00 | 0.00 | 0.00 | 91 | 1018.4 |
| 20260905230006 | 71 | 69 | 0.9 | 2.6 | 0.00 | 0.00 | 0.00 | 91 | 1018.2 |
| 20260905225503 | 71 | 69 | 0.9 | 2.6 | 0.00 | 0.00 | 0.00 | 91 | 1018.3 |
| 20260905225003 | 71 | 69 | 0.9 | 2.6 | 0.00 | 0.00 | 0.00 | 91 | 1018.3 |
| 20260905224503 | 71 | 111 | 0.9 | 3.5 | 0.00 | 0.00 | 0.00 | 91 | 1018.3 |
| 20260905224004 | 71 | 111 | 1.7 | 4.3 | 0.00 | 0.00 | 0.00 | 91 | 1018.3 |
| 20260905223504 | 71 | 88 | 1.7 | 4.3 | 0.00 | 0.00 | 0.00 | 91 | 1018.2 |
| 20260905223004 | 71 | 87 | 1.7 | 4.3 | 0.00 | 0.00 | 0.00 | 91 | 1018.1 |
| 20260905222003 | 71 | 84 | 1.7 | 3.5 | 0.00 | 0.00 | 0.00 | 91 | 1018.0 |
| 20260905221503 | 71 | 94 | 1.7 | 3.5 | 0.00 | 0.00 | 0.00 | 91 | 1018.0 |
| 20260905221004 | 71 | 76 | 1.7 | 5.2 | 0.00 | 0.00 | 0.00 | 91 | 1018.0 |
| 20260905220503 | 72 | 65 | 1.7 | 5.2 | 0.00 | 0.00 | 0.00 | 90 | 1017.8 |
| 20260905220006 | 72 | 86 | 0.9 | 2.6 | 0.00 | 0.00 | 0.00 | 90 | 1017.9 |
| 20260905214504 | 72 | 88 | 1.7 | 3.5 | 0.00 | 0.00 | 0.00 | 90 | 1017.7 |
| 20260905214003 | 72 | 44 | 1.7 | 5.2 | 0.00 | 0.00 | 0.00 | 90 | 1017.7 |
| 20260905213503 | 72 | 84 | 0.9 | 5.2 | 0.00 | 0.00 | 0.00 | 89 | 1017.6 |
| 20260905212503 | 73 | 168 | 0.9 | 3.5 | 0.00 | 0.00 | 0.00 | 89 | 1017.8 |
| 20260905212005 | 73 | 69 | 0.0 | 3.5 | 0.00 | 0.00 | 0.00 | 90 | 1017.9 |
| 20260905211003 | 73 | 49 | 0.9 | 5.2 | 0.00 | 0.00 | 0.00 | 91 | 1017.8 |
| 20260905210504 | 73 | 49 | 1.7 | 5.2 | 0.00 | 0.00 | 0.00 | 90 | 1017.8 |
| 20260905210006 | 73 | 80 | 0.9 | 3.5 | 0.00 | 0.00 | 0.00 | 90 | 1017.8 |
| 20260905205503 | 73 | 65 | 0.9 | 3.5 | 0.00 | 0.00 | 0.00 | 89 | 1017.7 |
| 20260905205002 | 73 | 41 | 0.9 | 2.6 | 0.00 | 0.00 | 0.00 | 89 | 1017.7 |
| 20260905204502 | 73 | 41 | 0.9 | 2.6 | 0.00 | 0.00 | 0.00 | 90 | 1017.8 |
| 20260905204002 | 73 | 273 | 0.0 | 2.6 | 0.00 | 0.00 | 0.00 | 89 | 1017.7 |
| 20260905203503 | 73 | 273 | 0.0 | 2.6 | 0.00 | 0.00 | 0.00 | 89 | 1017.7 |
| 20260905203002 | 73 | 360 | 0.9 | 3.5 | 0.00 | 0.00 | 0.00 | 89 | 1017.6 |
| 20260905202002 | 74 | 89 | 0.9 | 2.6 | 0.00 | 0.00 | 0.00 | 89 | 1017.7 |
| 20260905201503 | 74 | 89 | 0.9 | 2.6 | 0.00 | 0.00 | 0.00 | 89 | 1017.6 |
| 20260905200503 | 74 | 63 | 1.7 | 3.5 | 0.00 | 0.00 | 0.00 | 89 | 1017.5 |
| 20260905195003 | 75 | 75 | 1.7 | 3.5 | 0.00 | 0.00 | 0.00 | 88 | 1017.7 |
| 20260905194002 | 75 | 74 | 1.7 | 3.5 | 0.00 | 0.00 | 0.00 | 87 | 1017.8 |
| 20260905193502 | 75 | 84 | 1.7 | 4.3 | 0.00 | 0.00 | 0.00 | 87 | 1017.8 |
| 20260905193002 | 75 | 59 | 1.7 | 4.3 | 0.00 | 0.00 | 0.00 | 88 | 1017.7 |
| 20260905192504 | 75 | 23 | 1.7 | 3.5 | 0.00 | 0.00 | 0.00 | 87 | 1017.7 |
| 20260905192002 | 75 | 63 | 1.7 | 4.3 | 0.00 | 0.00 | 0.00 | 87 | 1017.7 |
| 20260905191503 | 76 | 44 | 1.7 | 3.5 | 0.00 | 0.00 | 0.00 | 87 | 1017.6 |
| 20260905191003 | 76 | 117 | 1.7 | 2.6 | 0.00 | 0.00 | 0.00 | 88 | 1017.7 |
| 20260905190502 | 76 | 65 | 1.7 | 5.2 | 0.00 | 0.00 | 0.00 | 87 | 1017.7 |
| 20260905190004 | 75 | 99 | 2.6 | 5.2 | 0.00 | 0.00 | 0.00 | 88 | 1017.6 |
| 20260905185502 | 75 | 47 | 2.6 | 7.0 | 0.00 | 0.00 | 0.00 | 88 | 1017.5 |
| 20260905185002 | 75 | 57 | 1.7 | 7.0 | 0.00 | 0.00 | 0.00 | 90 | 1017.5 |
| 20260905184002 | 74 | 77 | 0.9 | 4.3 | 0.00 | 0.00 | 0.00 | 91 | 1017.7 |
| 20260905183503 | 74 | 54 | 0.9 | 3.5 | 0.00 | 0.00 | 0.00 | 90 | 1017.7 |
| 20260905183002 | 74 | 103 | 1.7 | 3.5 | 0.00 | 0.00 | 0.00 | 90 | 1017.7 |
| 20260905182003 | 75 | 66 | 1.7 | 3.5 | 0.00 | 0.00 | 0.00 | 88 | 1017.7 |
| 20260905181504 | 76 | 65 | 0.9 | 2.6 | 0.00 | 0.00 | 0.00 | 89 | 1017.5 |
| 20260905181002 | 76 | 333 | 0.9 | 3.5 | 0.00 | 0.00 | 0.00 | 88 | 1017.5 |
| 20260905180502 | 76 | 273 | 0.9 | 3.5 | 0.00 | 0.00 | 0.00 | 88 | 1017.6 |
| 20260905180006 | 76 | 273 | 0.9 | 3.5 | 0.00 | 0.00 | 0.00 | 87 | 1017.4 |
| 20260905175502 | 76 | 271 | 0.9 | 2.6 | 0.00 | 0.00 | 0.00 | 87 | 1017.5 |
| 20260905175002 | 76 | 271 | 0.9 | 2.6 | 0.00 | 0.00 | 0.00 | 87 | 1017.4 |
| 20260905174005 | 76 | 319 | 0.9 | 3.5 | 0.00 | 0.00 | 0.00 | 86 | 1017.4 |
| 20260905173503 | 76 | 109 | 0.9 | 3.5 | 0.00 | 0.00 | 0.00 | 86 | 1017.4 |
| 20260905173002 | 76 | 78 | 0.9 | 3.5 | 0.00 | 0.00 | 0.00 | 87 | 1017.5 |
| 20260905172502 | 76 | 269 | 0.9 | 2.6 | 0.00 | 0.00 | 0.00 | 86 | 1017.6 |
| 20260905172003 | 76 | 266 | 0.9 | 2.6 | 0.00 | 0.00 | 0.00 | 88 | 1017.4 |
| 20260905171002 | 76 | 128 | 0.9 | 2.6 | 0.00 | 0.00 | 0.00 | 87 | 1017.6 |
| 20260905170503 | 76 | 36 | 1.7 | 3.5 | 0.00 | 0.00 | 0.00 | 87 | 1017.5 |
| 20260905170006 | 75 | 67 | 0.9 | 3.5 | 0.00 | 0.00 | 0.00 | 88 | 1017.5 |
| 20260905165502 | 75 | 279 | 0.9 | 3.5 | 0.00 | 0.01 | 0.00 | 87 | 1017.5 |
| 20260905165003 | 75 | 160 | 0.9 | 2.6 | 0.00 | 0.01 | 0.00 | 88 | 1017.6 |
| 20260905164503 | 75 | 54 | 0.9 | 3.5 | 0.00 | 0.01 | 0.00 | 88 | 1017.6 |
| 20260905164003 | 75 | 54 | 0.9 | 3.5 | 0.00 | 0.01 | 0.00 | 87 | 1017.7 |
| 20260905163503 | 75 | 72 | 1.7 | 2.6 | 0.00 | 0.01 | 0.00 | 87 | 1017.6 |
| 20260905163003 | 76 | 31 | 0.9 | 3.5 | 0.00 | 0.01 | 0.00 | 87 | 1017.6 |
| 20260905162503 | 76 | 43 | 0.9 | 2.6 | 0.00 | 0.01 | 0.00 | 87 | 1017.6 |
| 20260905161002 | 76 | 309 | 0.9 | 3.5 | 0.00 | 0.01 | 0.00 | 87 | 1017.6 |
| 20260905160503 | 76 | 199 | 0.9 | 3.5 | 0.00 | 0.01 | 0.00 | 89 | 1017.6 |
| 20260905160004 | 75 | 202 | 0.9 | 3.5 | 0.00 | 0.01 | 0.00 | 89 | 1017.5 |
| 20260905155503 | 75 | 149 | 0.9 | 2.6 | 0.00 | 0.01 | 0.00 | 88 | 1017.6 |
| 20260905155002 | 75 | 48 | 0.9 | 2.6 | 0.00 | 0.01 | 0.00 | 89 | 1017.5 |
| 20260905154502 | 75 | 155 | 1.7 | 4.3 | 0.00 | 0.01 | 0.00 | 89 | 1017.4 |
| 20260905154003 | 75 | 69 | 1.7 | 4.3 | 0.00 | 0.01 | 0.00 | 89 | 1017.3 |
| 20260905153503 | 75 | 152 | 1.7 | 3.5 | 0.00 | 0.01 | 0.00 | 90 | 1017.3 |
| 20260905153003 | 75 | 61 | 0.9 | 3.5 | 0.00 | 0.01 | 0.00 | 91 | 1017.3 |
| 20260905152502 | 74 | 300 | 0.9 | 2.6 | 0.00 | 0.01 | 0.00 | 90 | 1017.4 |
| 20260905152004 | 74 | 98 | 0.9 | 4.3 | 0.00 | 0.01 | 0.00 | 92 | 1017.3 |
| 20260905151503 | 74 | 96 | 0.9 | 3.5 | 0.00 | 0.01 | 0.00 | 92 | 1017.2 |
| 20260905151003 | 74 | 96 | 1.7 | 3.5 | 0.00 | 0.01 | 0.00 | 92 | 1017.1 |
| 20260905150502 | 73 | 253 | 0.9 | 3.5 | 0.00 | 0.01 | 0.00 | 94 | 1017.2 |
| 20260905150005 | 73 | 279 | 0.9 | 2.6 | 0.00 | 0.01 | 0.00 | 94 | 1017.0 |
| 20260905145502 | 73 | 184 | 1.7 | 3.5 | 0.00 | 0.33 | 0.00 | 94 | 1017.1 |
| 20260905145002 | 73 | 167 | 1.7 | 3.5 | 0.00 | 0.33 | 0.00 | 94 | 1017.0 |
| 20260905144503 | 72 | 286 | 0.9 | 3.5 | 0.00 | 0.33 | 0.00 | 95 | 1016.9 |
| 20260905144003 | 72 | 135 | 0.9 | 2.6 | 0.00 | 0.33 | 0.00 | 96 | 1016.9 |
| 20260905143503 | 72 | 67 | 1.7 | 7.8 | 0.00 | 0.33 | 0.00 | 96 | 1016.8 |
| 20260905143003 | 72 | 82 | 0.9 | 3.5 | 0.00 | 0.33 | 0.00 | 96 | 1016.7 |
| 20260905142502 | 72 | 86 | 0.9 | 3.5 | 0.00 | 0.33 | 0.00 | 97 | 1016.7 |
| 20260905142002 | 71 | 42 | 0.9 | 3.5 | 0.00 | 0.33 | 0.00 | 98 | 1016.6 |
| 20260905141503 | 71 | 69 | 0.9 | 3.5 | 0.00 | 0.33 | 0.00 | 98 | 1016.6 |
| 20260905141002 | 71 | 34 | 0.9 | 2.6 | 0.00 | 0.33 | 0.00 | 98 | 1016.5 |
| 20260905140502 | 71 | 5 | 0.9 | 3.5 | 0.00 | 0.33 | 0.00 | 98 | 1016.6 |